#timestamp,LO_Frequency,Hit,StdDev 
1569189615.6,286047002.7,P
1569189635.4,286047002.2,N
1569189655.3,286047002.6,N
1569189675.1,286046999.8,N
1569189695.9,286047000.4,N
1569189715.7,286046998.1,N
1569189735.5,286047001.0,N
1569189755.4,286047000.8,N
1569189775.2,286047000.8,N
1569189795.0,286046998.5,N
1569189796.0,286046998.5,N
1569189815.8,286046998.6,N
1569189835.6,286046999.5,N
1569189855.5,286046999.2,N
1569189875.3,286046997.4,N
1569189895.1,286046999.1,N
1569189915.9,286046998.1,N
1569189935.7,286047001.1,N
1569189955.6,286046999.1,N
1569189975.4,286046997.4,N
1569189995.2,286046997.0,N
1569190015.1,286046999.6,N
1569190016.0,286046999.6,N
1569190035.8,286046996.5,N
1569190055.7,286046997.2,N
1569190075.5,286046997.2,N
1569190095.3,286046996.7,N
1569190115.2,286046997.1,N
1569190135.0,286046997.8,N
1569190135.9,286046997.8,N
1569190155.7,286046997.2,N
1569190175.6,286046997.8,N
1569190195.4,286046996.1,N
1569190215.3,286046998.0,N
1569190235.1,286046998.0,N
1569190236.0,286046998.0,N
1569190255.8,286046997.2,N
1569190275.7,286046995.7,Y
1569190295.5,286046997.7,P
1569190315.4,286046999.2,P
1569190335.2,286046997.4,P
1569190355.0,286046995.7,Y
1569190355.9,286046995.7,P
1569190375.8,286046996.5,N
1569190395.6,286046996.8,P
1569190415.5,286046997.2,Y
1569190435.3,286046998.1,P
1569190455.1,286047000.0,N
1569190475.9,286047002.8,N
1569190495.7,286047002.0,N
1569190515.6,286047002.3,N
1569190535.4,286047001.6,N
1569190555.2,286047004.3,N
1569190575.1,286047001.6,N
1569190576.0,286047001.6,N
1569190595.8,286047002.3,N
1569190615.6,286047002.4,N
1569190635.5,286047000.6,N
1569190655.3,286046998.6,N
1569190675.2,286046998.9,N
1569190695.9,286047001.1,N
1569190715.7,286046998.8,N
1569190735.6,286046998.2,N
1569190755.4,286047002.7,N
1569190775.3,286047000.3,N
1569190795.1,286046999.9,N
1569190796.0,286046999.9,N
1569190815.8,286047001.7,N
1569190835.7,286047004.3,N
1569190855.5,286047001.9,N
1569190875.3,286047001.8,N
1569190895.2,286047003.7,N
1569190915.0,286047004.1,N
1569190915.9,286047004.1,N
1569190935.8,286047001.5,N
1569190955.6,286047002.0,N
1569190975.4,286047001.6,N
1569190995.3,286047001.5,N
1569191015.1,286047001.9,N
1569191035.9,286047001.9,N
1569191055.7,286047002.6,N
1569191075.5,286047002.1,N
1569191095.4,286047001.3,N
1569191115.2,286047002.1,N
1569191135.0,286047002.7,N
1569191135.9,286047002.7,N
1569191155.8,286047001.8,N
1569191175.6,286047003.0,N
1569191195.5,286047005.3,Y
1569191215.3,286047002.4,P
1569191235.1,286047001.8,P
1569191255.9,286047003.2,P
1569191275.7,286047001.9,Y
1569191295.6,286047000.6,P
1569191315.4,286047000.9,N
1569191335.2,286047000.5,N
1569191355.1,286047000.9,N
1569191356.0,286047000.9,N
1569191375.8,286046998.5,N
1569191395.7,286046998.4,N
1569191415.5,286047000.0,N
1569191435.3,286047002.2,N
1569191455.2,286047001.4,N
1569191475.0,286047002.6,N
1569191475.9,286047002.6,N
1569191495.7,286047000.5,N
1569191515.6,286047001.5,N
1569191535.4,286047002.8,N
1569191555.3,286046999.8,N
1569191575.1,286047000.9,N
1569191595.8,286047000.9,N
1569191615.7,286046998.7,N
1569191635.5,286047000.5,N
1569191655.4,286046999.2,N
1569191675.2,286046999.2,N
1569191695.0,286046999.0,N
1569191695.9,286046999.0,N
1569191715.8,286047000.8,N
1569191735.6,286047002.3,N
1569191755.5,286047000.2,N
1569191775.3,286047001.9,N
1569191795.1,286047000.7,N
1569191815.9,286046998.7,N
1569191835.7,286046998.4,N
1569191855.6,286046999.9,N
1569191875.4,286047002.6,N
1569191895.3,286047002.8,N
1569191915.1,286047002.6,N
1569191916.0,286047002.6,N
1569191935.8,286046999.9,N
1569191955.7,286046999.9,N
1569191975.5,286047000.6,N
1569191995.4,286047000.6,N
1569192015.3,286047001.2,N
1569192035.1,286047000.5,N
1569192055.9,286047002.6,N
1569192075.7,286046999.9,N
1569192095.5,286047000.9,N
1569192115.4,286047001.0,N
1569192165.2,286047000.8,E
1569192175.1,286047001.0,N
1569192195.9,286046998.4,P
1569192215.7,286046998.8,N
1569192235.6,286047000.8,N
1569192255.4,286047001.2,N
1569192275.2,286047001.0,N
1569192295.1,286046998.8,N
1569192296.0,286046998.8,N
1569192315.8,286047001.1,N
1569192335.7,286046998.8,N
1569192355.5,286046998.8,N
1569192375.3,286047001.2,N
1569192395.2,286047000.0,N
1569192415.0,286046999.9,N
1569192415.9,286046999.9,N
1569192435.8,286047000.1,N
1569192455.6,286046999.9,N
1569192475.4,286047000.3,N
1569192495.3,286047002.7,N
1569192515.1,286047000.5,N
1569192535.8,286047002.4,N
1569192555.7,286047002.1,N
1569192575.5,286047003.9,Y
1569192595.4,286046999.7,P
1569192615.2,286046999.9,N
1569192635.0,286047000.5,N
1569192635.9,286047000.5,N
1569192655.8,286046998.6,Y
1569192675.6,286047001.2,P
1569192695.5,286047000.0,N
1569192715.3,286047000.0,N
1569192735.1,286047002.8,Y
1569192755.9,286047002.1,P
1569192775.7,286046999.9,N
1569192795.6,286046999.7,N
1569192815.4,286047001.2,N
1569192835.2,286047001.0,N
1569192855.1,286046999.9,N
1569192856.0,286046999.9,N
1569192875.8,286047000.3,N
1569192895.6,286046999.3,N
1569192915.5,286046998.9,N
1569192935.3,286046999.0,N
1569192955.2,286046998.8,N
1569192975.9,286047000.2,N
1569192995.7,286047002.6,N
1569193015.6,286047003.6,Y
1569193035.4,286047002.5,P
1569193055.3,286047002.1,N
1569193075.1,286047002.6,N
1569193076.0,286047002.6,N
1569193095.8,286047000.6,N
1569193115.7,286047000.9,N
1569193135.5,286046996.5,Y
1569193155.3,286046997.1,P
1569193175.2,286046998.2,N
1569193195.0,286046998.4,N
1569193195.9,286046998.4,N
